Location: Pine Mountain Observatory
(43.7910°N, 120.9377°W)
Time: 05:57:40
(UTC-07:00)

Explorer 11/Cluster Stage 4 - Pass Details

Date: 02 June 2019
Orbit: 467 x 1260 km, 28.8° (Epoch: 19 June)

Event Time Altitude Azimuth Distance (km) Brightness Sun altitude
Rises 03:19:50 0° 253° (WSW) 3,970 - -16.8°
Reaches altitude 10° 03:23:50 10° 235° (SW) 2,869 - -16.4°
Maximum altitude 03:28:07 17° 197° (SSW) 2,205 - -16.0°
Exits shadow 03:29:56 15° 177° (S) 2,236 8.4 -15.8°
Drops below altitude 10° 03:31:57 10° 158° (SSE) 2,507 8.9 -15.6°
Sets 03:35:09 0° 139° (SE) 3,277 9.6 -15.2°
